Wind_Speed
91 91 89 86 86 85 84 81 79 78 77 77 77 77 76 75 75 76 77 79 81 85 88 89 89 86 83 81 81 81 83 85 83 80 80 82 83 85 86 86 86 85 84 83 82 81 81 79 78 77 74 73 78 85 87 81 77 80 84 85 87 89 91 92 94 94 94 94 95 96 98 99 102 106
89 89 88 86 86 86 85 82 81 79 78 77 77 77 76 75 75 75 75 76 80 84 86 88 89 87 83 81 80 81 83 82 78 77 78 81 83 84 85 85 84 83 82 80 78 78 78 77 76 75 73 73 79 86 85 80 76 78 82 85 85 87 88 90 92 92 93 94 94 95 94 96 100 105
88 88 88 86 85 85 85 83 82 80 79 78 77 77 77 75 75 74 73 73 78 82 85 87 88 87 84 82 82 82 81 79 76 76 77 80 83 83 83 83 82 81 79 76 74 75 76 76 76 74 72 73 79 85 83 78 75 76 80 83 84 85 86 88 91 92 93 94 93 92 91 95 100 105
87 87 86 86 85 85 84 83 82 81 80 78 78 78 77 76 75 74 73 72 75 80 83 84 86 86 83 82 83 82 79 77 75 75 77 80 81 81 80 80 80 78 75 72 71 72 74 76 76 74 71 72 79 83 80 76 74 75 78 81 82 82 83 86 89 90 92 92 91 90 90 94 100 105
86 85 85 85 85 84 83 82 82 81 80 78 78 78 78 77 75 75 73 72 73 77 80 82 83 84 82 81 83 81 77 76 75 74 77 80 80 78 78 78 78 76 72 69 68 70 73 76 75 73 70 72 78 81 77 74 73 75 77 80 81 81 82 84 87 88 90 91 90 89 91 96 101 105
86 84 83 83 84 84 83 82 81 80 79 78 77 77 77 77 77 77 75 73 73 75 77 79 81 82 82 81 81 79 75 74 74 74 77 79 79 77 76 76 76 74 71 68 67 69 72 74 74 71 69 71 76 77 75 72 73 75 77 79 80 81 82 84 85 87 89 91 89 89 93 99 102 107
85 83 81 80 82 83 83 81 80 79 78 77 76 76 77 78 78 78 76 74 73 72 73 76 79 81 82 80 78 76 73 72 73 74 76 77 77 77 75 74 73 72 70 66 65 68 70 73 73 70 68 70 74 74 72 71 72 73 76 78 79 80 82 84 85 86 89 90 89 90 95 100 104 109
84 81 79 78 80 81 82 80 79 78 76 75 74 74 76 77 78 77 76 74 72 71 71 73 77 80 80 78 77 75 71 70 72 74 75 76 76 75 74 72 72 71 68 65 64 66 69 71 70 67 67 69 71 70 68 69 71 72 74 76 77 79 81 83 85 86 89 90 90 92 96 100 105 111
82 80 77 77 78 79 79 79 78 76 74 73 72 73 75 76 76 75 75 73 71 70 69 71 75 78 77 76 76 73 69 68 72 73 74 75 75 73 72 71 70 69 67 64 62 64 68 69 67 64 65 68 68 67 66 68 70 71 73 75 76 78 80 82 84 86 89 90 91 94 96 100 107 113
79 77 76 76 77 76 76 77 76 74 71 70 70 72 73 74 74 74 73 71 70 69 68 69 72 73 74 74 74 72 68 67 70 71 73 74 74 71 69 69 69 68 65 61 60 62 66 67 64 61 63 66 66 63 64 67 69 70 72 74 75 77 79 81 83 86 89 90 92 95 98 103 110 115
77 76 75 75 75 74 74 74 73 71 68 67 68 70 70 71 72 72 70 70 69 67 67 69 69 69 71 72 71 70 69 67 68 69 70 72 73 70 67 67 68 66 62 59 60 62 64 64 62 59 61 64 63 61 62 66 68 70 71 72 74 77 78 80 83 86 90 91 94 99 103 108 113 117
75 74 75 74 73 72 72 71 69 68 66 66 67 67 68 69 70 69 68 67 66 66 67 68 67 68 69 70 69 69 69 66 66 68 67 68 70 69 67 67 66 63 59 58 61 63 62 61 60 58 59 61 60 59 62 66 68 69 70 71 74 76 78 80 82 86 89 92 96 102 108 111 113 116
74 73 73 72 71 71 70 68 67 66 65 64 65 65 66 67 67 66 65 64 64 66 66 65 66 67 68 68 68 68 67 64 64 66 66 65 67 67 66 67 66 61 55 56 62 64 60 58 58 57 58 58 58 58 62 65 67 67 69 70 73 75 77 80 82 86 89 92 97 103 109 111 112 115
72 72 72 71 69 68 67 66 65 64 63 63 63 64 65 65 65 63 62 62 63 64 63 63 66 66 66 68 67 66 65 63 62 64 64 63 63 63 63 66 66 60 53 54 62 65 61 56 55 55 56 56 55 57 61 65 65 66 67 69 72 74 77 80 82 86 89 92 97 104 110 112 112 114
71 71 70 69 67 66 66 66 64 62 61 61 61 63 63 63 62 59 59 60 62 61 60 62 64 64 64 67 67 64 62 61 61 62 62 60 59 59 60 63 64 59 52 52 58 64 62 55 52 53 55 54 53 56 61 64 64 65 66 68 70 73 76 79 82 86 90 92 97 104 110 112 113 113
69 69 68 67 65 64 65 65 63 61 60 59 60 61 62 61 58 56 57 59 58 58 59 61 63 64 64 65 65 62 60 59 60 60 59 57 56 57 59 60 60 56 52 51 56 63 62 52 48 52 54 52 53 56 60 62 63 64 64 66 69 71 75 79 82 87 90 93 98 105 110 113 113 112
66 66 65 64 63 63 64 63 61 59 58 58 59 61 60 57 54 55 56 56 55 56 57 59 62 64 63 62 62 61 59 59 60 59 56 53 53 55 57 57 56 53 51 50 55 64 61 46 44 52 53 50 52 55 59 61 61 62 63 65 67 69 73 78 82 87 91 94 100 106 112 114 113 111
62 63 63 61 60 61 61 61 59 57 56 57 59 59 56 54 53 54 54 53 53 54 55 57 61 62 61 59 59 59 58 58 58 57 55 52 52 55 56 55 53 51 48 47 52 63 60 43 41 51 52 48 51 54 57 59 60 60 62 63 65 67 72 77 82 88 91 95 101 108 113 115 112 110
59 60 60 58 58 59 58 57 56 55 55 57 58 56 52 51 52 52 51 51 52 53 54 57 58 59 59 57 56 57 58 57 56 55 54 52 53 55 55 53 51 47 44 44 50 59 58 44 41 49 50 47 50 53 55 57 58 59 60 62 63 66 71 76 82 87 91 96 103 109 114 115 111 109
56 57 57 56 56 55 54 53 53 53 55 56 54 51 49 49 50 49 49 50 51 53 55 56 56 56 56 55 55 55 56 55 54 53 53 52 52 53 53 53 51 45 41 43 48 54 54 46 42 46 48 46 49 51 53 55 57 58 60 61 63 66 70 76 82 87 92 97 104 110 115 114 111 111
53 54 53 51 51 51 50 50 51 53 54 52 49 47 47 48 47 47 48 49 50 52 54 54 53 53 53 53 53 53 54 53 52 52 52 52 52 52 51 51 51 46 41 43 48 50 49 46 43 45 45 45 47 49 51 54 56 57 60 61 62 66 70 75 81 87 92 98 104 110 114 112 110 112
49 48 47 47 47 47 47 48 50 51 50 47 45 45 45 45 45 46 47 48 50 52 52 51 51 50 50 51 51 52 52 51 50 50 51 52 52 51 50 49 50 47 42 43 47 46 44 44 42 43 44 43 45 48 50 53 55 56 58 60 62 66 70 75 80 86 92 98 104 109 111 110 109 114
45 44 44 44 44 44 46 48 48 46 44 42 43 43 43 43 44 45 47 49 50 50 49 48 48 47 47 49 49 50 51 51 49 49 49 50 50 50 49 46 46 45 42 43 46 43 41 43 41 41 42 42 43 47 49 51 53 55 57 59 62 66 70 74 79 86 92 97 103 107 109 108 110 117
41 41 41 41 42 43 44 44 42 40 40 41 41 41 42 42 44 45 47 48 48 47 46 45 46 45 45 46 47 49 50 49 47 47 47 49 49 48 47 44 41 40 39 42 46 42 39 41 40 39 40 41 42 46 48 49 51 54 56 58 62 67 70 74 79 85 92 96 101 105 105 106 111 120
36 36 37 38 40 40 38 37 37 38 39 39 39 40 41 42 43 45 47 47 45 44 44 43 44 44 43 44 45 47 48 47 45 44 45 47 47 46 45 42 40 38 36 39 44 42 38 40 40 37 39 41 43 45 47 48 50 53 55 58 62 66 70 73 78 85 91 95 100 102 102 105 113 124
32 32 34 35 34 33 33 34 35 36 37 37 38 39 40 42 44 45 44 44 43 42 41 42 42 42 42 43 44 45 45 44 43 44 45 46 46 45 43 40 39 38 35 35 40 41 38 38 38 37 38 40 42 44 45 46 49 52 55 57 61 66 69 72 76 84 90 94 98 100 102 108 117 128
28 28 29 28 28 29 31 33 34 34 35 36 37 38 40 42 43 42 41 40 40 40 40 40 41 41 42 42 42 42 42 41 40 42 44 45 44 43 41 38 37 37 36 35 36 38 38 37 36 36 38 40 41 43 44 45 49 52 54 57 61 65 69 71 76 83 89 93 97 100 104 112 122 133
23 24 24 25 27 29 30 31 32 33 34 35 36 38 40 41 40 39 39 38 38 38 39 39 39 40 41 41 41 40 41 40 38 38 41 43 43 42 40 37 35 35 36 35 34 36 37 36 34 35 37 39 40 41 43 45 48 51 53 56 61 66 68 71 76 83 89 93 96 99 106 116 126 137
22 23 24 25 27 28 29 30 31 32 33 35 37 38 38 38 37 36 36 36 36 37 37 38 38 39 39 39 40 40 39 38 36 36 38 41 42 41 39 37 34 33 34 35 34 34 35 34 33 35 36 38 39 40 42 45 48 51 54 57 61 65 68 70 75 82 89 93 95 98 108 119 130 141
22 23 24 25 26 27 28 29 30 31 33 35 36 36 35 35 34 34 34 34 35 36 36 37 37 37 37 38 39 39 38 37 36 36 37 39 39 39 37 36 34 32 32 33 33 33 33 32 32 34 36 37 39 40 42 44 48 51 54 57 61 66 68 71 76 83 89 93 95 99 110 123 134 146
21 22 23 24 25 26 27 28 29 31 33 34 33 33 32 32 32 32 32 33 34 35 35 36 36 36 36 37 37 37 37 35 35 35 37 38 37 36 34 33 32 31 30 30 31 31 31 31 32 34 35 36 38 40 41 44 48 51 54 58 62 66 68 71 77 84 90 95 97 102 113 126 138 151
20 21 22 23 24 25 26 28 30 31 31 31 30 30 30 30 30 31 31 32 33 34 34 35 35 35 36 36 36 36 36 35 34 34 36 37 36 33 31 30 29 29 29 29 29 29 29 29 31 33 35 36 38 40 41 44 48 52 55 59 63 67 69 72 78 85 91 96 98 104 115 128 141 156
20 20 21 22 23 25 26 27 28 29 28 28 27 27 28 28 29 30 31 31 32 33 33 34 34 34 35 35 34 34 35 35 34 33 34 35 34 31 29 27 26 27 27 27 27 28 28 29 31 33 34 36 37 39 41 45 49 53 56 60 64 68 70 73 79 85 91 96 100 106 117 130 144 160
19 19 20 22 23 24 25 26 26 25 25 25 26 26 27 27 28 29 30 31 32 32 33 34 34 34 33 33 33 33 33 33 33 32 32 33 32 29 27 26 25 25 26 25 26 26 27 28 30 32 34 35 37 39 42 46 50 54 57 61 65 69 71 74 80 86 92 97 101 108 120 133 147 163
18 19 20 21 22 23 23 23 23 23 23 24 25 25 26 26 27 28 29 30 31 32 32 33 33 33 32 32 32 32 32 32 31 30 30 31 31 28 25 24 23 23 24 24 24 25 26 27 30 32 33 34 36 39 42 46 51 54 58 62 66 70 72 75 81 87 93 98 103 111 122 134 148 165
17 18 19 20 20 20 20 20 21 22 22 23 24 24 25 25 26 27 28 29 30 31 32 32 32 32 32 31 31 31 31 31 30 29 28 29 30 27 24 23 22 21 22 23 23 24 25 27 29 31 32 34 36 39 42 46 51 55 58 62 66 70 73 76 82 88 94 100 105 113 123 135 149 165
16 17 17 18 18 18 18 19 20 21 22 23 23 24 24 25 26 27 27 28 29 30 31 31 31 31 31 31 31 31 31 30 29 28 26 26 27 26 23 21 21 20 20 21 22 23 25 26 28 30 32 33 36 39 43 47 51 55 58 62 66 70 74 78 84 90 95 101 107 114 124 136 149 165
15 15 16 16 16 17 17 18 20 21 22 22 23 23 24 25 25 26 27 28 28 29 29 30 30 31 31 31 30 30 30 30 29 28 26 25 25 25 22 20 20 19 19 20 21 22 24 26 28 30 31 33 36 40 43 48 52 55 59 62 66 70 75 79 85 91 96 103 109 116 125 137 148 163
13 14 14 15 15 16 17 18 20 21 22 22 23 23 24 25 25 26 26 27 27 28 28 29 29 30 31 31 30 29 29 29 28 27 25 24 24 24 22 20 19 18 18 19 20 22 24 26 28 29 31 33 36 40 44 48 52 56 59 62 66 71 76 80 87 93 97 104 111 118 127 138 148 161
12 13 13 14 15 16 18 19 20 21 21 22 23 23 24 25 25 25 26 26 27 27 28 28 29 29 30 31 31 30 29 28 27 26 24 23 22 23 22 20 18 18 18 18 20 21 23 25 27 29 31 34 37 40 44 48 53 56 59 63 67 71 76 81 88 94 99 106 113 121 129 139 149 160
11 12 13 14 15 17 18 19 20 21 22 22 23 23 24 24 25 25 25 26 26 27 27 27 28 29 30 30 31 30 29 28 27 26 25 22 21 21 21 20 18 18 17 18 19 21 23 25 27 30 32 34 37 41 45 49 53 57 60 63 67 72 77 82 88 95 101 107 115 123 131 140 149 159
11 12 14 15 16 17 19 19 20 21 22 22 23 23 24 24 24 25 25 25 26 26 27 27 28 28 29 30 30 30 30 29 28 26 25 23 21 21 20 20 18 17 17 18 19 21 23 26 28 30 32 35 38 42 45 49 53 57 61 64 68 73 78 83 89 95 101 108 117 125 132 141 149 159
12 13 14 16 17 18 19 20 20 21 22 23 23 24 24 24 24 24 25 25 25 26 26 27 28 28 29 29 30 30 30 29 29 27 26 24 22 20 20 20 19 18 18 18 19 21 23 26 28 31 33 35 38 42 46 49 53 57 61 65 69 73 78 84 90 96 102 109 118 126 134 141 149 159
13 14 15 17 18 18 19 20 21 22 22 23 23 23 24 24 24 24 24 25 25 26 26 27 28 28 28 29 29 30 30 29 29 28 27 25 23 21 20 19 19 18 18 18 19 21 23 26 28 31 33 36 39 42 46 50 54 58 62 65 69 73 78 84 91 97 102 109 118 127 135 142 149 157
14 15 16 17 18 19 20 21 22 22 23 23 23 23 24 24 24 24 25 25 25 26 26 27 28 28 29 29 29 29 30 30 29 29 27 26 23 21 20 19 19 19 19 19 20 21 23 26 28 31 34 36 39 43 46 50 54 58 62 65 68 73 78 84 91 97 102 109 118 127 135 142 148 156
Wind_Direction
264 266 268 268 269 269 270 270 269 270 270 269 269 268 268 268 269 270 271 273 274 274 275 275 274 273 271 270 270 269 268 268 269 270 271 270 270 270 270 270 270 269 269 268 268 268 267 266 264 263 260 258 257 256 255 252 248 246 244 242 239 238 237 236 236 234 232 231 229 227 224 221 219 217
261 263 264 265 266 267 268 269 269 269 270 270 269 269 268 268 268 268 270 272 274 275 275 276 276 275 274 272 271 270 269 269 270 271 271 270 270 270 271 271 271 270 269 269 269 268 267 266 264 263 260 258 256 256 255 253 249 246 244 242 240 237 236 235 234 233 231 229 227 225 223 220 218 216
258 260 262 262 263 265 266 267 268 269 269 269 269 269 268 268 268 268 269 270 272 274 275 276 276 277 276 275 273 271 271 272 272 272 271 271 271 271 271 271 271 270 269 269 269 268 267 266 264 262 260 257 256 255 254 253 249 245 243 241 239 237 234 233 232 230 229 228 225 223 220 218 217 215
257 258 260 261 261 263 264 265 267 268 269 269 269 269 269 268 268 269 269 270 271 272 273 274 276 277 277 276 275 273 274 274 273 273 273 272 272 272 272 272 271 270 270 269 269 268 267 266 264 262 260 256 255 254 254 251 248 245 242 240 239 236 233 231 230 228 227 226 224 220 217 215 215 214
257 257 258 259 261 261 262 264 265 266 267 268 268 269 269 269 269 269 270 270 270 271 273 274 275 276 276 275 274 275 275 275 275 275 274 274 273 273 272 272 271 271 270 270 269 268 267 266 264 262 259 256 254 254 253 251 247 244 241 240 238 235 232 230 228 227 225 224 222 218 214 212 212 211
258 257 257 258 260 261 261 262 263 264 265 266 267 267 268 269 269 269 270 270 270 271 273 274 275 276 274 273 273 275 275 275 276 276 275 275 275 274 273 272 272 272 271 270 269 267 266 265 264 262 258 256 254 253 252 250 247 244 241 239 237 234 232 229 227 225 223 222 220 217 214 211 209 208
259 258 257 257 258 259 260 261 261 262 263 264 265 265 266 267 267 269 270 270 270 271 273 274 275 275 274 274 274 274 274 275 276 277 276 276 275 274 274 273 273 273 272 271 269 267 265 264 263 261 258 256 254 253 251 249 246 243 240 238 236 233 231 228 226 223 222 220 217 214 213 211 208 206
259 258 257 257 257 258 259 260 261 261 262 262 263 264 264 264 265 267 269 270 270 271 272 274 274 274 274 275 275 274 276 277 277 277 277 276 275 274 274 274 274 273 272 271 269 267 265 263 262 261 258 256 254 252 250 247 244 241 239 237 234 232 229 227 224 221 220 219 215 212 211 210 207 205
259 258 257 256 256 257 258 259 260 261 261 261 261 262 262 263 264 266 268 270 270 271 272 273 273 273 274 275 276 276 278 279 279 279 278 276 275 275 275 275 274 273 272 271 269 267 265 263 262 260 258 256 254 251 248 246 243 240 238 235 233 231 228 226 223 220 219 217 213 211 209 208 207 206
258 258 257 256 256 256 257 258 260 261 261 261 260 260 261 262 264 266 268 269 270 272 272 272 272 274 275 275 276 278 279 279 279 279 278 277 276 275 276 276 275 273 272 271 269 267 265 264 262 260 258 256 253 251 247 245 242 239 237 234 232 230 227 224 222 219 217 215 211 209 207 206 207 206
256 256 256 256 256 256 257 258 259 261 261 260 259 260 260 262 264 266 268 269 271 272 272 272 273 273 274 275 277 279 279 279 279 277 277 277 277 277 276 276 275 274 273 273 271 269 266 265 263 260 257 255 254 251 247 244 242 239 236 233 231 229 226 223 220 218 216 213 210 207 205 204 206 206
255 255 255 255 255 256 256 257 259 259 259 259 259 259 260 262 264 266 268 270 271 272 272 273 273 273 274 276 277 279 279 279 278 276 276 277 278 279 278 277 275 274 275 276 274 270 267 265 264 260 257 255 253 250 246 244 241 238 235 232 229 227 225 222 219 217 215 212 209 207 205 204 205 206
254 254 254 255 255 255 256 257 257 258 258 258 259 259 260 262 264 266 268 270 271 272 273 274 274 274 275 277 278 279 279 279 277 276 276 277 278 279 279 278 276 275 276 278 276 272 268 266 264 262 258 255 252 249 245 243 241 238 235 231 228 226 223 220 218 216 213 211 208 207 206 204 204 205
253 253 253 254 254 255 256 256 256 257 257 258 258 259 261 262 264 266 268 269 270 272 274 274 274 275 277 278 278 279 279 278 276 275 276 276 277 278 278 278 277 276 277 276 275 273 269 266 264 262 259 255 251 247 244 242 240 237 234 230 227 224 222 219 216 214 212 209 207 206 206 204 203 204
252 252 253 254 254 255 255 256 257 257 257 257 258 260 261 263 265 267 267 268 270 272 274 274 275 277 278 278 279 279 278 277 275 275 275 276 276 277 277 277 278 278 277 275 274 272 269 266 265 262 258 254 249 245 242 241 239 236 233 229 226 223 220 217 215 213 211 208 206 206 205 204 203 203
251 252 253 254 254 254 255 256 257 257 257 257 259 260 262 264 266 266 266 268 271 273 273 275 276 277 278 279 279 278 278 277 276 275 275 276 277 278 277 277 278 278 278 276 274 271 268 266 265 261 256 252 248 243 242 240 238 235 232 229 226 222 219 216 213 212 209 206 204 204 205 205 203 202
251 252 253 253 253 253 254 256 257 257 257 258 259 261 263 265 265 265 266 269 271 273 274 277 278 279 279 280 280 280 280 279 278 278 277 277 278 279 278 277 277 277 276 276 275 272 268 265 263 260 256 251 247 243 241 240 237 235 231 228 225 221 218 215 212 210 208 205 203 203 204 205 203 201
250 250 252 253 253 253 254 255 256 257 257 258 260 261 264 265 265 265 267 270 271 273 275 277 279 280 281 281 281 282 281 281 281 281 281 281 282 281 279 278 277 276 275 274 274 272 270 265 261 259 256 250 246 242 240 238 236 233 230 227 224 220 217 214 211 209 207 204 202 202 203 204 203 200
248 249 251 251 251 252 253 254 256 257 257 258 260 262 264 264 264 266 268 270 272 274 275 276 277 279 280 281 281 281 280 281 282 283 284 284 284 282 281 280 278 275 274 273 271 270 270 267 261 258 255 250 245 242 239 237 235 232 230 226 223 219 216 213 211 208 206 204 202 202 203 204 202 199
247 249 250 250 251 252 253 254 256 256 257 258 261 263 264 263 264 266 268 270 272 274 275 276 277 278 279 280 280 279 280 281 283 284 285 285 284 283 283 283 281 278 277 275 271 269 269 267 262 258 254 249 244 241 238 236 233 230 228 225 221 218 215 212 210 208 205 203 202 202 204 203 200 197
247 249 251 251 251 252 253 254 255 255 257 259 262 262 262 263 265 267 268 271 273 274 275 277 278 278 279 279 280 280 281 283 284 286 287 286 285 285 285 285 284 282 280 276 271 269 268 267 262 258 253 247 243 240 236 234 231 228 226 223 218 216 213 211 210 207 205 203 202 203 204 202 199 196
248 250 250 250 250 251 252 253 253 255 258 261 261 260 261 263 265 267 270 271 273 274 276 277 277 278 279 280 281 282 283 284 285 286 286 286 286 285 284 285 284 283 281 275 271 269 268 265 261 257 253 246 241 238 234 232 230 227 224 221 217 214 212 210 208 207 205 203 202 203 204 201 197 194
247 248 248 248 250 251 251 252 254 257 260 260 259 259 261 263 266 268 270 272 273 274 276 277 277 278 279 281 282 283 284 285 286 286 286 285 284 284 284 283 283 282 279 274 271 269 267 265 260 256 253 245 238 236 233 230 228 225 222 219 215 213 211 209 207 206 205 204 203 204 203 199 195 193
244 245 247 248 249 250 251 253 257 258 258 257 258 259 261 264 267 269 270 272 274 275 276 277 278 279 280 281 283 283 284 285 286 286 286 285 285 285 285 285 283 279 276 273 271 269 266 264 260 254 251 244 237 234 232 228 225 223 220 216 214 212 210 208 206 205 204 204 203 203 202 197 193 191
243 244 246 247 248 250 253 255 255 255 254 256 257 260 262 265 268 269 271 273 275 276 277 278 279 279 280 281 282 283 284 285 287 287 286 286 286 287 287 287 285 279 273 270 270 269 265 262 258 253 248 242 236 232 230 226 223 221 218 214 212 211 209 207 205 204 203 203 202 202 199 194 191 190
242 243 244 246 248 251 252 252 251 252 254 255 258 261 264 267 268 270 273 275 276 277 278 279 280 281 282 282 282 282 284 286 289 289 288 287 288 288 289 289 286 281 274 268 267 268 265 260 256 251 245 239 235 231 228 224 221 218 215 213 211 210 208 206 204 203 203 202 201 200 196 192 190 189
240 241 243 246 247 247 247 248 249 251 253 256 260 263 265 267 270 272 274 275 277 279 280 281 282 282 282 282 282 283 285 287 288 288 288 289 289 289 290 289 286 282 278 271 266 265 263 259 254 248 242 237 233 229 226 222 218 216 213 210 210 209 207 205 203 202 202 202 200 198 193 190 190 189
237 239 240 241 242 243 244 246 249 251 255 259 262 264 266 269 271 273 275 277 279 280 281 282 283 283 283 284 285 286 287 287 287 287 289 289 290 290 291 289 285 280 277 273 267 262 260 257 252 246 240 235 231 227 223 219 216 214 211 208 208 208 206 204 201 200 201 201 199 196 191 189 189 188
231 233 235 238 240 242 244 246 250 254 258 261 263 265 268 271 273 275 277 279 281 281 282 283 283 284 285 287 287 288 288 289 289 290 290 290 290 291 291 289 284 277 274 271 267 261 259 255 249 244 238 233 229 224 220 217 213 212 209 206 206 207 205 202 200 199 200 200 198 194 190 188 188 187
228 231 234 236 238 241 244 249 253 257 259 262 265 268 271 273 275 278 280 281 282 283 283 284 284 285 287 288 288 289 290 292 293 293 292 290 290 290 289 287 283 277 272 268 264 260 257 252 247 241 236 230 226 222 217 214 211 210 207 204 203 205 203 200 199 198 198 198 196 192 189 188 188 186
227 230 232 235 239 243 248 252 255 257 261 264 267 270 273 275 278 280 282 283 283 284 284 285 286 288 288 288 289 290 292 294 295 295 293 291 290 289 286 283 280 276 271 266 262 259 255 249 244 239 233 228 223 219 214 211 209 208 205 203 202 203 202 199 197 197 197 196 194 191 189 188 187 186
227 230 234 238 243 247 250 253 257 259 263 266 269 272 275 278 280 282 283 284 284 285 286 287 288 288 288 289 290 291 293 295 296 296 294 293 292 290 285 280 277 274 270 265 260 257 252 246 240 236 231 225 220 216 211 208 207 206 204 201 201 201 200 198 196 196 195 194 192 190 188 188 187 186
229 233 238 242 246 250 252 256 260 263 266 269 272 275 278 280 282 283 284 285 285 286 287 287 288 287 288 289 290 293 295 297 297 297 295 293 293 291 286 279 275 271 267 263 259 254 249 242 237 233 228 223 218 213 208 206 205 204 202 200 199 200 199 196 195 195 194 192 191 189 188 188 187 186
235 238 242 246 249 253 256 259 263 266 270 272 275 277 280 282 283 284 285 286 286 286 287 287 287 287 288 289 291 292 294 296 297 297 296 294 293 291 285 279 275 270 265 261 256 252 246 239 235 231 226 220 215 210 206 204 203 203 201 199 198 198 198 196 194 194 193 191 190 189 188 188 187 186
240 243 247 250 253 256 259 263 266 270 272 274 277 279 281 282 284 285 286 287 287 287 287 287 287 288 289 289 291 292 294 295 296 297 296 294 293 290 285 279 274 268 263 259 254 249 243 237 233 229 224 218 213 208 205 203 203 202 201 199 198 198 197 195 193 193 192 190 189 189 188 188 187 187
245 248 251 254 257 260 264 267 270 272 275 276 278 280 282 283 285 286 286 287 287 287 287 288 288 289 290 292 293 294 295 297 297 298 296 295 293 291 284 278 273 267 261 256 252 246 241 235 231 227 222 216 210 206 203 202 202 202 201 198 197 197 196 194 193 192 191 190 189 189 189 188 187 187
248 251 254 257 261 264 268 271 273 275 276 278 280 282 284 286 287 287 287 287 287 287 287 288 288 289 291 292 294 295 297 298 298 298 297 295 293 291 285 278 272 266 260 254 249 244 239 233 229 226 220 214 208 204 202 201 201 201 201 199 197 197 196 194 193 192 190 189 189 189 189 188 188 188
253 256 259 263 267 270 272 273 275 276 278 281 283 285 287 288 289 288 287 287 287 288 288 288 289 290 291 292 293 294 296 299 300 300 299 297 295 291 285 278 272 265 258 252 246 241 236 232 227 224 219 213 207 203 202 201 201 200 200 198 197 197 196 195 193 192 190 189 189 190 189 189 188 188
257 262 266 269 272 273 274 275 276 278 280 283 285 288 289 290 289 289 288 288 289 289 288 288 289 290 291 292 294 294 296 297 299 300 299 298 297 293 287 279 272 265 257 250 244 239 234 230 226 222 218 213 207 203 202 201 201 200 199 198 197 197 197 195 193 192 190 189 189 190 190 189 189 189
265 268 271 272 273 274 274 275 277 280 282 285 288 290 291 291 290 290 290 290 290 289 289 289 289 290 291 292 294 296 297 299 300 301 300 298 297 294 288 280 271 265 257 248 242 237 232 228 224 220 216 212 207 203 202 201 201 200 199 198 197 197 197 196 194 192 190 189 189 190 190 190 189 190
270 272 273 272 273 273 275 277 280 283 286 289 292 292 292 292 291 291 291 291 291 290 290 289 290 290 291 292 293 296 298 300 302 303 302 300 298 295 290 281 272 264 257 248 240 235 231 227 222 219 215 211 207 203 202 202 201 200 199 198 197 196 197 197 195 193 191 189 189 190 190 190 190 190
274 273 273 273 273 275 278 281 284 287 290 292 294 294 294 294 293 293 293 292 292 291 290 290 290 290 290 291 293 295 298 300 302 303 303 301 300 297 291 284 273 264 257 249 240 233 229 225 222 218 215 211 207 203 201 201 202 201 199 198 197 196 196 196 196 194 192 190 190 190 191 191 191 191
275 273 273 274 276 279 282 285 288 291 293 295 296 296 296 296 295 294 294 293 292 292 291 290 290 290 290 291 293 295 297 300 301 302 302 301 300 297 292 285 276 265 256 249 241 233 228 224 221 218 214 211 208 204 202 201 202 202 200 199 198 197 196 196 196 195 193 191 191 191 191 192 192 192
274 274 275 277 280 283 286 289 292 294 297 298 299 299 298 298 297 296 295 294 293 292 291 291 290 290 291 291 293 294 296 297 299 300 301 300 299 297 293 286 278 267 257 249 242 235 228 223 221 218 214 211 208 205 202 201 201 202 202 200 198 198 197 197 196 196 195 193 192 192 192 193 193 193
274 277 280 283 286 288 291 294 297 299 300 301 301 300 300 300 299 298 297 296 294 293 292 291 291 291 291 291 292 293 294 295 297 298 299 299 298 297 293 287 280 270 259 249 243 236 229 223 221 218 215 211 208 206 203 202 202 202 202 201 200 199 198 198 197 196 195 194 193 193 193 194 194 193
Height
10107 10107 10110 10112 10112 10111 10112 10115 10116 10117 10118 10118 10118 10118 10119 10121 10121 10119 10116 10112 10106 10098 10091 10088 10089 10095 10103 10105 10105 10104 10100 10098 10100 10101 10099 10096 10093 10090 10089 10088 10088 10087 10086 10085 10085 10085 10084 10084 10085 10086 10088 10088 10086 10083 10084 10092 10100 10103 10104 10109 10114 10118 10124 10129 10135 10144 10153 10161 10171 10180 10189 10202 10214 10227
10095 10096 10098 10100 10100 10099 10099 10102 10103 10104 10105 10105 10105 10106 10106 10108 10109 10108 10108 10106 10096 10087 10082 10077 10074 10079 10085 10090 10091 10090 10087 10087 10091 10090 10086 10082 10079 10078 10076 10074 10073 10072 10071 10072 10073 10071 10069 10069 10070 10071 10073 10074 10071 10068 10071 10079 10085 10088 10090 10095 10100 10104 10111 10117 10122 10130 10139 10147 10156 10166 10180 10194 10204 10214
10084 10084 10086 10087 10087 10087 10087 10089 10090 10091 10092 10093 10093 10093 10093 10095 10096 10096 10098 10099 10090 10079 10074 10068 10062 10064 10070 10073 10074 10075 10075 10076 10078 10077 10073 10069 10065 10065 10064 10061 10059 10058 10058 10060 10060 10058 10056 10055 10055 10057 10059 10060 10057 10055 10059 10066 10072 10075 10077 10081 10084 10089 10097 10102 10107 10115 10123 10132 10142 10154 10169 10182 10190 10200
10072 10073 10074 10074 10075 10074 10075 10077 10078 10079 10080 10081 10081 10081 10081 10082 10084 10084 10085 10088 10083 10072 10066 10061 10054 10052 10058 10060 10056 10059 10064 10064 10064 10064 10060 10055 10052 10052 10051 10047 10044 10044 10045 10047 10047 10045 10043 10041 10041 10043 10045 10045 10043 10042 10048 10054 10059 10061 10064 10067 10071 10076 10083 10088 10094 10102 10110 10120 10132 10143 10155 10166 10175 10185
10059 10061 10062 10062 10062 10062 10064 10065 10066 10067 10068 10070 10070 10069 10069 10069 10070 10071 10072 10076 10074 10066 10058 10053 10047 10042 10047 10049 10044 10046 10052 10051 10050 10051 10046 10040 10040 10040 10038 10034 10031 10031 10033 10034 10035 10033 10030 10027 10027 10029 10032 10032 10030 10031 10037 10042 10046 10048 10050 10054 10058 10064 10071 10076 10083 10091 10099 10109 10121 10132 10142 10149 10159 10171
10045 10049 10051 10051 10050 10050 10052 10054 10055 10055 10056 10058 10059 10058 10057 10057 10057 10057 10060 10063 10063 10058 10051 10043 10037 10033 10034 10038 10036 10036 10041 10039 10037 10036 10032 10027 10026 10025 10024 10021 10019 10018 10020 10022 10022 10020 10017 10014 10014 10016 10019 10019 10018 10020 10025 10030 10033 10035 10038 10041 10046 10052 10059 10065 10071 10079 10087 10097 10109 10121 10128 10135 10144 10156
10031 10036 10039 10040 10039 10038 10040 10043 10043 10044 10045 10047 10048 10048 10046 10045 10045 10045 10048 10050 10050 10050 10044 10035 10028 10023 10021 10025 10027 10027 10030 10030 10025 10021 10019 10015 10013 10012 10010 10009 10008 10006 10007 10010 10010 10007 10004 10002 10002 10004 10006 10006 10006 10009 10013 10017 10019 10022 10025 10029 10034 10041 10047 10052 10060 10068 10076 10085 10097 10107 10115 10123 10132 10142
10017 10022 10027 10028 10027 10027 10029 10031 10032 10032 10035 10037 10037 10037 10035 10033 10034 10035 10035 10037 10038 10039 10036 10028 10020 10014 10012 10013 10015 10016 10020 10019 10013 10010 10007 10003 10000 9999 9999 9998 9996 9994 9995 9997 9998 9994 9991 9989 9990 9993 9994 9994 9995 9998 10001 10004 10006 10010 10013 10017 10022 10028 10034 10040 10048 10057 10065 10074 10084 10092 10102 10114 10122 10130
10004 10009 10013 10015 10015 10016 10018 10019 10020 10021 10025 10027 10027 10025 10023 10022 10023 10024 10024 10025 10026 10028 10027 10020 10012 10006 10005 10004 10002 10005 10010 10007 10001 9997 9995 9990 9988 9988 9987 9985 9983 9982 9983 9985 9985 9982 9977 9976 9979 9982 9982 9982 9983 9986 9989 9991 9994 9997 10001 10006 10011 10016 10022 10029 10037 10045 10053 10063 10072 10081 10092 10104 10113 10121
9992 9996 9999 10001 10003 10005 10007 10007 10008 10011 10014 10016 10015 10013 10012 10012 10013 10013 10013 10014 10015 10016 10015 10011 10005 10000 9998 9995 9993 9994 9998 9997 9992 9987 9983 9977 9975 9977 9977 9973 9970 9970 9972 9973 9972 9969 9965 9964 9968 9971 9970 9970 9972 9976 9978 9979 9982 9986 9989 9994 10000 10005 10011 10018 10026 10034 10042 10051 10061 10070 10080 10091 10100 10111
9980 9983 9985 9988 9991 9993 9995 9996 9998 10001 10003 10004 10004 10002 10002 10002 10003 10003 10003 10003 10004 10004 10003 9999 9997 9994 9990 9987 9986 9984 9985 9986 9983 9978 9974 9967 9962 9964 9966 9962 9958 9959 9961 9962 9959 9955 9953 9954 9957 9959 9959 9959 9962 9965 9967 9967 9970 9974 9978 9983 9989 9994 10001 10008 10016 10023 10031 10040 10048 10056 10064 10074 10086 10099
9968 9970 9972 9976 9979 9981 9983 9985 9988 9990 9992 9992 9992 9992 9992 9993 9993 9993 9993 9994 9994 9993 9992 9989 9987 9985 9982 9979 9978 9975 9974 9976 9972 9966 9966 9961 9953 9952 9953 9949 9947 9949 9951 9951 9945 9940 9942 9945 9946 9947 9948 9949 9952 9954 9955 9956 9958 9962 9967 9972 9978 9984 9991 9998 10005 10012 10021 10029 10037 10045 10052 10062 10076 10091
9956 9958 9960 9964 9967 9970 9972 9975 9978 9979 9980 9982 9982 9982 9982 9983 9984 9984 9984 9984 9983 9982 9981 9979 9976 9975 9973 9970 9969 9966 9964 9965 9962 9955 9955 9954 9947 9944 9942 9936 9934 9939 9943 9941 9932 9927 9931 9936 9935 9936 9938 9939 9942 9944 9944 9945 9948 9952 9957 9961 9967 9974 9981 9989 9996 10003 10011 10020 10029 10038 10045 10056 10070 10084
9944 9947 9949 9952 9956 9960 9962 9964 9967 9969 9970 9971 9972 9972 9973 9974 9975 9976 9976 9975 9973 9973 9972 9969 9966 9966 9963 9959 9958 9958 9955 9954 9952 9947 9945 9945 9940 9937 9934 9926 9922 9927 9936 9934 9922 9915 9919 9925 9927 9926 9927 9929 9932 9933 9933 9934 9938 9942 9946 9951 9957 9964 9971 9979 9987 9994 10002 10011 10021 10030 10039 10050 10063 10077
9934 9936 9939 9943 9947 9950 9952 9954 9956 9959 9960 9962 9962 9963 9963 9964 9966 9968 9967 9965 9964 9964 9963 9959 9956 9956 9955 9950 9947 9948 9947 9944 9941 9938 9936 9935 9933 9929 9925 9919 9914 9917 9924 9925 9916 9905 9905 9914 9919 9916 9916 9919 9922 9922 9922 9924 9928 9931 9936 9942 9948 9955 9962 9970 9977 9985 9994 10004 10015 10024 10034 10044 10056 10070
9924 9927 9931 9935 9938 9940 9942 9944 9947 9949 9950 9952 9954 9954 9954 9956 9958 9958 9957 9956 9956 9955 9953 9950 9947 9946 9946 9942 9937 9937 9937 9933 9930 9929 9927 9926 9924 9920 9915 9911 9908 9909 9912 9914 9908 9895 9893 9906 9911 9905 9905 9910 9911 9912 9913 9916 9919 9923 9928 9933 9939 9946 9954 9961 9969 9977 9986 9997 10007 10018 10028 10038 10049 10064
9915 9919 9923 9927 9929 9931 9932 9935 9937 9940 9942 9943 9944 9944 9946 9948 9949 9948 9948 9948 9948 9946 9945 9942 9937 9935 9935 9933 9928 9926 9926 9923 9919 9918 9916 9916 9915 9910 9905 9903 9902 9902 9904 9905 9898 9883 9883 9899 9902 9894 9895 9902 9902 9903 9906 9908 9911 9915 9920 9926 9932 9939 9946 9953 9961 9969 9979 9989 9999 10010 10020 10030 10043 10058
9908 9912 9915 9919 9920 9922 9924 9927 9929 9931 9933 9934 9934 9935 9938 9940 9939 9939 9940 9940 9939 9938 9937 9934 9929 9926 9925 9924 9920 9916 9915 9913 9910 9907 9905 9905 9904 9899 9896 9895 9894 9894 9896 9897 9890 9874 9874 9890 9893 9884 9887 9894 9894 9895 9898 9900 9904 9908 9912 9918 9925 9932 9939 9946 9953 9962 9972 9983 9993 10002 10012 10023 10037 10054
9901 9904 9907 9910 9911 9913 9916 9919 9921 9923 9925 9925 9926 9928 9931 9931 9931 9931 9932 9931 9931 9930 9929 9926 9923 9919 9916 9915 9913 9909 9906 9904 9901 9899 9897 9896 9894 9890 9887 9885 9885 9886 9888 9889 9882 9869 9868 9880 9883 9877 9880 9885 9885 9887 9891 9893 9897 9902 9906 9912 9919 9925 9932 9939 9947 9956 9965 9976 9986 9995 10004 10017 10033 10050
9893 9896 9899 9901 9903 9906 9909 9912 9914 9915 9915 9916 9919 9921 9923 9923 9923 9924 9924 9924 9923 9922 9920 9917 9915 9912 9909 9906 9904 9902 9899 9896 9893 9890 9888 9887 9886 9882 9879 9876 9874 9877 9880 9879 9873 9865 9864 9871 9874 9870 9872 9876 9877 9881 9885 9887 9890 9894 9898 9904 9911 9918 9925 9932 9940 9950 9959 9969 9979 9987 9997 10011 10029 10045
9885 9888 9890 9893 9896 9899 9903 9905 9906 9906 9907 9910 9913 9914 9915 9915 9916 9916 9916 9917 9916 9914 9911 9909 9907 9904 9901 9898 9896 9893 9890 9888 9886 9882 9879 9877 9876 9874 9872 9869 9865 9867 9872 9869 9863 9860 9860 9863 9865 9863 9865 9868 9871 9874 9878 9879 9882 9886 9890 9896 9903 9910 9917 9925 9935 9944 9954 9963 9972 9981 9991 10007 10025 10041
9878 9881 9884 9887 9890 9893 9896 9897 9897 9898 9901 9904 9906 9907 9908 9908 9909 9909 9909 9909 9908 9906 9904 9902 9899 9897 9894 9890 9888 9885 9882 9880 9878 9876 9872 9869 9868 9865 9865 9864 9859 9858 9862 9861 9855 9854 9855 9856 9857 9856 9857 9861 9865 9867 9870 9872 9875 9879 9884 9890 9897 9904 9911 9918 9928 9939 9948 9957 9966 9975 9987 10004 10022 10037
9871 9874 9877 9881 9884 9887 9888 9889 9890 9893 9895 9898 9899 9900 9901 9902 9902 9902 9902 9901 9900 9898 9897 9894 9891 9890 9887 9883 9880 9877 9874 9872 9870 9869 9866 9863 9860 9858 9857 9857 9855 9852 9853 9851 9847 9847 9849 9849 9850 9850 9850 9854 9858 9860 9862 9865 9869 9874 9879 9885 9892 9898 9905 9912 9922 9933 9943 9952 9961 9971 9984 10001 10019 10035
9865 9869 9872 9876 9878 9880 9881 9883 9885 9888 9889 9891 9893 9894 9895 9895 9896 9895 9894 9893 9892 9891 9889 9887 9884 9882 9880 9876 9873 9870 9867 9865 9864 9862 9859 9855 9853 9851 9849 9849 9849 9847 9846 9843 9839 9841 9843 9842 9842 9844 9844 9847 9851 9853 9855 9860 9864 9868 9874 9879 9885 9892 9899 9907 9916 9927 9937 9948 9957 9968 9983 10000 10017 10033
9861 9865 9868 9870 9872 9874 9876 9879 9881 9882 9884 9886 9887 9887 9889 9889 9889 9888 9886 9885 9885 9883 9881 9879 9876 9874 9872 9870 9867 9864 9861 9859 9857 9855 9852 9849 9846 9845 9842 9842 9841 9840 9840 9837 9833 9834 9836 9836 9836 9838 9839 9841 9844 9847 9850 9855 9858 9862 9868 9874 9879 9887 9894 9902 9912 9921 9931 9942 9953 9965 9982 9999 10016 10030
9858 9861 9863 9865 9867 9870 9872 9874 9875 9877 9879 9880 9881 9882 9883 9882 9881 9880 9879 9878 9877 9875 9874 9871 9869 9866 9864 9862 9860 9858 9855 9853 9850 9847 9845 9842 9840 9838 9836 9836 9834 9832 9832 9832 9829 9828 9829 9830 9830 9832 9833 9835 9838 9841 9845 9849 9853 9857 9863 9869 9876 9882 9890 9899 9908 9918 9928 9939 9950 9964 9980 9997 10013 10026
9853 9856 9858 9861 9864 9866 9867 9869 9871 9872 9874 9875 9876 9876 9876 9875 9874 9874 9873 9872 9870 9868 9866 9864 9862 9859 9857 9855 9853 9851 9849 9847 9845 9842 9839 9836 9833 9832 9830 9830 9828 9826 9824 9825 9824 9822 9822 9823 9825 9826 9827 9829 9833 9836 9840 9844 9847 9852 9858 9866 9872 9878 9886 9895 9904 9915 9926 9936 9947 9960 9976 9992 10007 10020
9849 9852 9854 9857 9859 9861 9863 9865 9866 9868 9869 9870 9870 9869 9869 9868 9868 9867 9866 9865 9864 9862 9860 9858 9855 9853 9850 9848 9846 9844 9842 9841 9840 9837 9833 9830 9827 9826 9825 9824 9823 9821 9818 9818 9818 9817 9816 9818 9819 9820 9822 9824 9828 9832 9835 9839 9843 9848 9854 9861 9867 9873 9882 9891 9900 9910 9922 9933 9945 9958 9973 9988 10003 10018
9845 9848 9851 9853 9855 9857 9859 9860 9862 9863 9864 9864 9863 9863 9863 9862 9862 9861 9860 9859 9857 9855 9853 9851 9849 9847 9844 9842 9839 9838 9836 9834 9833 9831 9828 9825 9822 9820 9819 9818 9817 9815 9814 9812 9812 9812 9811 9812 9813 9815 9817 9819 9823 9827 9830 9834 9839 9844 9849 9856 9862 9870 9879 9889 9898 9908 9919 9931 9944 9960 9975 9988 10002 10015
9842 9845 9847 9849 9851 9853 9855 9856 9857 9858 9858 9857 9857 9857 9857 9856 9856 9855 9854 9852 9851 9849 9847 9845 9843 9841 9839 9836 9834 9832 9830 9828 9826 9824 9822 9820 9817 9816 9814 9812 9811 9810 9809 9808 9807 9807 9806 9807 9808 9809 9812 9815 9818 9822 9826 9830 9835 9839 9846 9853 9859 9865 9874 9884 9894 9905 9917 9930 9944 9958 9972 9984 9997 10011
9840 9842 9844 9846 9847 9849 9851 9852 9852 9852 9852 9852 9852 9852 9852 9851 9850 9849 9848 9846 9845 9843 9841 9839 9837 9834 9833 9831 9829 9826 9824 9823 9821 9819 9816 9814 9812 9811 9809 9808 9806 9805 9804 9803 9802 9802 9802 9803 9803 9805 9807 9810 9814 9818 9822 9827 9831 9836 9842 9849 9854 9860 9870 9880 9890 9901 9913 9926 9940 9953 9967 9981 9994 10007
9837 9839 9841 9843 9844 9846 9847 9847 9847 9847 9847 9847 9847 9847 9846 9846 9845 9843 9842 9841 9839 9837 9835 9833 9831 9829 9827 9826 9824 9821 9819 9817 9816 9814 9811 9808 9807 9806 9804 9803 9802 9800 9799 9799 9798 9797 9797 9798 9799 9800 9803 9806 9810 9814 9819 9823 9827 9832 9838 9845 9850 9857 9866 9877 9887 9897 9908 9921 9935 9951 9966 9980 9993 10005
9835 9837 9838 9840 9841 9842 9842 9842 9842 9842 9843 9843 9843 9842 9841 9840 9839 9838 9837 9835 9833 9831 9829 9827 9826 9824 9822 9820 9818 9817 9815 9812 9811 9809 9807 9804 9802 9801 9800 9799 9798 9796 9795 9794 9793 9793 9793 9794 9795 9796 9799 9802 9806 9811 9816 9820 9824 9828 9834 9841 9847 9853 9862 9873 9883 9894 9905 9918 9932 9949 9964 9977 9990 10002
9833 9834 9835 9836 9837 9837 9837 9838 9838 9838 9838 9838 9838 9837 9837 9836 9835 9833 9831 9830 9828 9826 9824 9822 9820 9819 9817 9816 9814 9812 9811 9809 9807 9805 9802 9800 9798 9797 9796 9794 9793 9792 9791 9790 9789 9789 9789 9790 9791 9793 9795 9799 9803 9808 9812 9816 9820 9824 9830 9837 9843 9850 9858 9868 9879 9891 9904 9916 9929 9944 9959 9973 9986 9998
9830 9831 9832 9832 9833 9833 9833 9834 9834 9834 9834 9834 9833 9833 9832 9831 9830 9829 9827 9825 9823 9821 9819 9817 9815 9813 9812 9811 9809 9808 9806 9805 9803 9801 9799 9796 9793 9793 9792 9790 9789 9788 9787 9786 9786 9786 9786 9787 9788 9789 9793 9796 9801 9805 9809 9813 9817 9821 9826 9833 9840 9847 9855 9865 9876 9888 9900 9912 9925 9940 9954 9968 9982 9995
9827 9828 9828 9828 9829 9829 9830 9830 9830 9830 9829 9829 9829 9828 9828 9827 9825 9824 9822 9820 9818 9816 9814 9812 9810 9808 9807 9806 9804 9803 9801 9800 9798 9797 9795 9792 9789 9788 9788 9787 9786 9785 9784 9783 9783 9783 9783 9784 9785 9787 9790 9794 9798 9802 9807 9811 9815 9819 9824 9831 9838 9844 9852 9863 9873 9884 9895 9907 9921 9935 9949 9963 9977 9991
9824 9824 9825 9825 9826 9826 9826 9826 9826 9825 9825 9825 9824 9824 9823 9822 9821 9819 9817 9815 9813 9811 9809 9807 9805 9804 9802 9801 9800 9798 9797 9795 9794 9792 9791 9788 9786 9784 9783 9783 9782 9781 9781 9780 9780 9780 9780 9781 9782 9784 9787 9791 9795 9799 9804 9807 9812 9817 9823 9830 9836 9843 9850 9859 9868 9879 9891 9903 9916 9930 9944 9958 9971 9985
9821 9821 9822 9822 9822 9822 9822 9822 9822 9821 9821 9821 9820 9820 9819 9818 9816 9815 9813 9811 9809 9807 9805 9803 9801 9799 9798 9797 9796 9795 9793 9791 9789 9788 9786 9785 9782 9780 9780 9779 9778 9778 9778 9777 9777 9777 9777 9778 9779 9782 9785 9788 9792 9796 9800 9804 9808 9813 9820 9827 9834 9841 9847 9855 9864 9875 9887 9899 9912 9925 9939 9951 9963 9976
9818 9819 9819 9819 9819 9819 9819 9819 9818 9818 9818 9817 9817 9816 9815 9813 9812 9810 9808 9806 9804 9802 9801 9799 9797 9795 9794 9792 9791 9790 9789 9787 9786 9784 9782 9781 9779 9777 9776 9775 9775 9775 9774 9774 9774 9775 9775 9775 9777 9779 9782 9785 9789 9793 9797 9801 9806 9811 9817 9824 9831 9838 9844 9851 9860 9871 9882 9893 9905 9918 9931 9943 9955 9967
9816 9817 9817 9817 9816 9816 9816 9816 9815 9815 9814 9814 9813 9812 9811 9809 9807 9806 9804 9802 9800 9798 9796 9795 9793 9791 9790 9788 9787 9785 9784 9783 9781 9780 9779 9777 9775 9774 9772 9772 9771 9771 9771 9771 9771 9772 9772 9773 9774 9776 9779 9783 9786 9790 9795 9799 9803 9808 9814 9821 9828 9835 9842 9849 9856 9866 9876 9887 9898 9909 9921 9933 9944 9957
9814 9814 9814 9814 9814 9814 9813 9813 9813 9812 9811 9811 9809 9808 9807 9805 9803 9801 9800 9798 9796 9794 9792 9791 9789 9787 9786 9784 9782 9781 9780 9778 9777 9776 9774 9773 9772 9770 9769 9768 9768 9768 9768 9768 9769 9769 9770 9771 9772 9774 9776 9780 9783 9787 9792 9796 9800 9805 9810 9817 9824 9831 9838 9846 9854 9862 9871 9881 9891 9903 9914 9925 9937 9950
9812 9812 9812 9812 9811 9811 9811 9810 9810 9809 9808 9807 9806 9805 9803 9801 9799 9798 9796 9794 9792 9790 9788 9787 9785 9783 9782 9780 9778 9777 9775 9774 9773 9772 9771 9770 9769 9767 9766 9765 9765 9765 9765 9765 9766 9766 9767 9768 9769 9771 9773 9777 9780 9784 9788 9793 9798 9802 9807 9813 9820 9826 9833 9841 9850 9859 9868 9876 9885 9896 9908 9920 9932 9944
9810 9810 9810 9810 9809 9809 9809 9808 9807 9806 9805 9804 9802 9801 9799 9797 9795 9794 9792 9790 9788 9787 9785 9783 9781 9779 9778 9776 9774 9773 9771 9770 9769 9768 9767 9766 9765 9764 9763 9762 9761 9761 9762 9762 9763 9763 9764 9766 9767 9768 9771 9774 9777 9781 9785 9790 9795 9799 9803 9809 9816 9823 9829 9836 9845 9854 9864 9872 9880 9890 9901 9913 9924 9936
9809 9808 9808 9808 9807 9807 9806 9805 9804 9803 9802 9801 9799 9797 9795 9794 9792 9790 9788 9786 9785 9783 9781 9779 9777 9775 9774 9772 9770 9769 9767 9766 9765 9764 9763 9763 9762 9761 9760 9759 9758 9758 9758 9759 9759 9760 9762 9763 9764 9766 9768 9771 9774 9778 9782 9786 9790 9795 9801 9806 9813 9819 9826 9832 9839 9849 9858 9867 9876 9885 9895 9905 9916 9929
9807 9807 9806 9806 9805 9804 9803 9802 9801 9800 9799 9797 9796 9794 9792 9790 9788 9786 9784 9782 9781 9779 9777 9775 9773 9771 9770 9768 9767 9765 9764 9763 9762 9761 9760 9759 9758 9758 9757 9756 9755 9755 9755 9756 9756 9757 9758 9760 9761 9763 9765 9768 9771 9775 9779 9783 9787 9791 9797 9803 9809 9816 9822 9829 9835 9844 9853 9862 9871 9881 9889 9899 9910 9921